Regional Weather Roundup
Issued by NWS

Home | Current Version | Previous Version | Graphics & Text | Print | Product List | Glossary On
Versions: 1 2 3 4 5 6 7 8 9 10 11 12 13 14 15 16 17 18 19 20 21 22 23 24 25 26 27 28 29 30 31 32 33 34 35 36 37 38 39 40 41 42 43 44 45 46 47 48 49 50
000
ASUS45 KSLC 230110
RWRUT

UTAH REGIONAL WEATHER ROUNDUP
NATIONAL WEATHER SERVICE SALT LAKE CITY UT
700 PM MDT SUN OCT 22 2017

UTZ001>011-023>025-230200-

NORTHERN UTAH

CITY           SKY/WX    TMP DP  RH WIND       PRES   REMARKS
BRIGHAM CITY   CLOUDY    63  27  25 W3        30.33S
HILL AFB       CLOUDY    61  28  28 S6        30.34S
LOGAN          CLOUDY    59  33  37 CALM      30.31F
OGDEN          CLOUDY    62  31  31 SE5       30.32S
SALT LAKE CITY MOCLDY    64  29  26 SW3       30.32S
TOOELE VALLEY  PTCLDY    52  36  54 W6        30.33R
WENDOVER       MOCLDY    61  27  27 CALM      30.33R
WEST JORDAN    PTCLDY    57  32  38 SW6       30.34F

$$

UTZ011>015-024>027-230200-

CENTRAL/NORTHEAST UTAH

CITY           SKY/WX    TMP DP  RH WIND       PRES   REMARKS
PROVO AIRPORT  MOCLDY    57  37  47 NW3       30.35R
MOAB/CANYONLAN PTCLDY    57  15  19 NW7       30.34R
DELTA          MOCLDY    55  23  28 CALM      30.36S
PRICE          MOCLDY    53  20  27 E6        30.40R
RICHFIELD      CLEAR     54  32  43 CALM      30.40R
ROOSEVELT      CLOUDY    52  23  32 NW5       30.34R
VERNAL         CLEAR     48  27  44 CALM      30.32R

$$

UTZ013>016-019>022-027-230200-

SOUTHERN UTAH

CITY           SKY/WX    TMP DP  RH WIND       PRES   REMARKS
BRYCE CANYON   PTCLDY    53  12  19 W5        30.49R
CEDAR CITY     PTCLDY    61  21  21 E5        30.38R
MILFORD        PTCLDY    67  20  16 CALM      30.35R
ST GEORGE      MOCLDY    74  24  15 CALM      30.26R
HANKSVILLE     PTCLDY    63  19  19 SE3       30.36S
KANAB          CLEAR     64  25  22 S5        30.37S
BLANDING         N/A     58  16  19 CALM      30.48R

$$

REGIONAL REPORTS     COLORADO/ARIZONA

CITY           SKY/WX    TMP DP  RH WIND       PRES   REMARKS
CRAIG, CO      PTCLDY    46  28  49 SW8       30.34R
GRAND JUNCTION CLOUDY    54  18  24 N5        30.36R
RIFLE, CO      CLOUDY    54  27  35 S5        30.37R
MONTROSE, CO   CLOUDY    54  25  32 CALM      30.41R
CORTEZ, CO     CLEAR     56  20  24 NW8       30.41R
COLORADO CITY    N/A     64  30  27 CALM      30.38R
PAGE, AZ       CLEAR     63  22  20 E3        30.32R
GRAND CANYON   CLEAR     53  16  23 NW3       30.46R
KINGMAN, AZ    PTCLDY    72  27  18 NE7       30.27S
FLAGSTAFF, AZ  PTCLDY    56  15  20 CALM      30.47R

$$

REGIONAL REPORTS    NEVADA/IDAHO/WYOMING

CITY           SKY/WX    TMP DP  RH WIND       PRES   REMARKS
LAS VEGAS, NV  CLEAR     80  27  14 N5        30.22S
ELY, NY        PTCLDY    58  14  17 W6        30.44R
ELKO, NV       PTCLDY    59  28  30 SW10      30.39S
POCATELLO, ID  CLOUDY    56  38  50 SW16      30.33R
BURLEY, ID     CLOUDY    57  40  52 W8        30.31R
FORT BRIDGER,    N/A     51  24  34 W21G31    30.38S
EVANSTON, WY   CLOUDY    51  27  39 SW15      30.40F
ROCK SPRINGS,  CLOUDY    51  23  33 W17G26    30.34R
KEMMERER, WY   CLOUDY    46  27  46 W22G28    30.36S

$$



USA.gov is the U.S. government's official web portal to all federal, state and local government web resources and services.